Change the Weather History Date:

Wednesday, January 30, 2013

  Actual Average Record
Temperature  
Mean Temperature 49 °F 33 °F  
Max Temperature 59 °F 39 °F 64 °F (2006)
Min Temperature 39 °F 27 °F 2 °F (1873)
Degree Days  
Heating Degree Days 16 32  
Month to date heating degree days 900 975  
Since 1 July heating degree days 2490 2660  
Cooling Degree Days 0 0  
Month to date cooling degree days 0 0  
Year to date cooling degree days 0 0  
Moisture  
Dew Point 46 °F    
Average Humidity 89    
Maximum Humidity 100    
Minimum Humidity 77    
Precipitation  
Precipitation 0.04 in 0.11 in 1.19 in (1939)
Month to date precipitation 1.86 3.53  
Year to date precipitation 1.86 3.53  
Snow  
Snow 0.00 in 0.20 in 5.80 in (1966)
Month to date snowfall 1.5 6.7  
Since 1 July snowfall 6.6 11.8  
Snow Depth 0.00 in    
Sea Level Pressure  
Sea Level Pressure 29.77 in    
Wind  
Wind Speed 5 mph (ESE)    
Max Wind Speed 15 mph    
Max Gust Speed 23 mph    
Visibility 4 miles    
Events Fog , Rain    
T = Trace of Precipitation, MM = Missing Value Source: NWS Daily Summary

Daily Weather History Graph

Daily Weather History Graph

Search for Another Location

Airport or City:

Trip Planner

Search our weather history database for the weather conditions in past years. The results will help you decide how hot, cold, wet, or windy it might be!

Date:

Astronomy

Jan. 30, 2013 Rise Set
Actual Time 7:07 AM EST 5:11 PM EST
Civil Twilight 6:38 AM EST 5:40 PM EST
Nautical Twilight 6:05 AM EST 6:13 PM EST
Astronomical Twilight 5:33 AM EST 6:45 PM EST
Moon 9:09 PM EST (1/30) 8:32 AM EST (1/30)
Length of Visible Light 11h 01m
Length of Day
10h 03m
Waning Gibbous, 88% of the Moon is Illuminated
Jan 30
Waning Gibbous
Feb 3
Last Quarter
Feb 10
New
Feb 17
First Quarter
Feb 25
Full

Hourly Weather History & Observations

Time (EST) Temp. Windchill Dew Point Humidity Pressure Visibility Wind Dir Wind Speed Gust Speed Precip Events Conditions
12:51 AM 39.0 °F 35.7 °F 37.9 °F 96% 30.06 in 3.0 mi ENE 4.6 mph - N/A   Overcast
1:51 AM 39.0 °F 35.7 °F 37.0 °F 93% 30.03 in 3.0 mi ESE 4.6 mph - N/A   Overcast
2:26 AM 39.9 °F 35.8 °F 37.9 °F 93% 30.03 in 3.0 mi ESE 5.8 mph - N/A   Overcast
2:34 AM 39.9 °F 37.8 °F 37.9 °F 93% 30.03 in 2.5 mi East 3.5 mph - N/A   Overcast
2:51 AM 39.0 °F 35.7 °F 37.0 °F 93% 30.00 in 2.0 mi ENE 4.6 mph - N/A   Overcast
3:17 AM 39.0 °F 34.8 °F 37.9 °F 96% 30.01 in 1.8 mi ENE 5.8 mph - N/A   Overcast
3:51 AM 39.9 °F 36.7 °F 37.9 °F 93% 29.96 in 0.8 mi ENE 4.6 mph - N/A   Overcast
4:51 AM 39.9 °F 36.7 °F 39.0 °F 97% 29.94 in 0.2 mi ENE 4.6 mph - N/A Fog Fog
5:51 AM 41.0 °F - 39.9 °F 96% 29.93 in 0.2 mi Calm Calm - N/A Fog Fog
6:51 AM 44.1 °F 41.5 °F 44.1 °F 100% 29.90 in 0.5 mi Variable 4.6 mph - N/A Fog Fog
7:51 AM 45.0 °F 43.5 °F 44.1 °F 97% 29.87 in 0.5 mi Variable 3.5 mph - N/A Fog Fog
8:10 AM 45.0 °F 43.5 °F 44.1 °F 97% 29.90 in 1.2 mi Variable 3.5 mph - N/A   Overcast
8:28 AM 46.0 °F - 45.0 °F 96% 29.89 in 1.0 mi Calm Calm - N/A   Overcast
8:51 AM 46.0 °F - 45.0 °F 96% 29.86 in 1.0 mi Calm Calm - N/A   Partly Cloudy
9:40 AM 46.9 °F - 45.0 °F 93% 29.87 in 2.0 mi Calm Calm - N/A   Mostly Cloudy
9:51 AM 46.9 °F - 45.0 °F 93% 29.83 in 2.0 mi NNE 4.6 mph - N/A   Overcast
10:27 AM 50.0 °F - 46.0 °F 86% 29.84 in 3.0 mi Calm Calm - N/A   Overcast
10:51 AM 51.1 °F - 46.9 °F 86% 29.80 in 4.0 mi SE 4.6 mph - N/A   Scattered Clouds
11:48 AM 53.6 °F - 46.4 °F 77% 29.79 in 4.0 mi ENE 4.6 mph - N/A   Haze
11:51 AM 53.1 °F - 46.9 °F 80% 29.77 in 4.0 mi ENE 4.6 mph - N/A   Haze
12:51 PM 57.9 °F - 51.1 °F 78% 29.72 in 5.0 mi Variable 3.5 mph - N/A   Haze
1:51 PM 55.9 °F - 50.0 °F 80% 29.67 in 6.0 mi SSE 6.9 mph - N/A   Haze
2:51 PM 54.0 °F - 48.9 °F 83% 29.64 in 7.0 mi South 8.1 mph - N/A   Overcast
3:00 PM 54.0 °F - 48.9 °F 83% 29.66 in 7.0 mi North - - N/A   Overcast
3:51 PM 54.0 °F - 48.9 °F 83% 29.64 in 8.0 mi SSE 5.8 mph - N/A   Overcast
4:51 PM 53.1 °F - 48.9 °F 86% 29.60 in 10.0 mi SSE 10.4 mph - N/A   Overcast
5:51 PM 54.0 °F - 50.0 °F 86% 29.59 in 10.0 mi SSE 5.8 mph - N/A   Overcast
6:43 PM 55.0 °F - 53.1 °F 93% 29.63 in 6.0 mi SSE 4.6 mph - 0.01 in Rain Light Rain
6:51 PM 54.0 °F - 52.0 °F 93% 29.60 in 5.0 mi Calm Calm - 0.01 in Rain Light Rain
7:51 PM 52.0 °F - 51.1 °F 97% 29.58 in 4.0 mi Calm Calm - 0.01 in   Overcast
8:51 PM 52.0 °F - 50.0 °F 93% 29.53 in 6.0 mi SSE 6.9 mph - 0.01 in   Overcast
9:51 PM 54.0 °F - 51.1 °F 90% 29.49 in 8.0 mi South 6.9 mph - N/A   Overcast
10:28 PM 53.1 °F - 51.1 °F 93% 29.47 in 6.0 mi South 9.2 mph 18.4 mph N/A   Overcast
10:51 PM 54.0 °F - 52.0 °F 93% 29.43 in 7.0 mi South 13.8 mph 23.0 mph N/A   Overcast
11:51 PM 55.9 °F - 53.1 °F 90% 29.37 in 9.0 mi South 9.2 mph 19.6 mph 0.01 in   Overcast